STARLINK-33785, 63516

Orbit data source: Space-Track

STARLINK-33785, 63516 is a payload satellite owned by SpaceX/Seattle (US) in LEO that was launched on Mon, 07 Apr 2025 UTC via an FALCON 9 launch vehicle from the Air Force Western Test Range (AFWTR). Payload-class satellites include a variety of spacecraft equipped with specific instruments for various scientific and technological missions. These include communications satellites like Starlink; space stations such as the ISS; scientific satellites like the Hubble; Earth observation satellites from companies like Planet Labs, Umbra, and HawkEye 360; GPS; miniature CubeSats for education and research; and military/defense satellites.

Loading next visibility...
Identifier
63516, 2025-071Z
Orbit
LEO
Last TLE update
2 days ago
Origin
Manufacturer
SpaceX/Seattle
Mission
Operational spacecraft
Bus & Motor
STARLINK V2MO, Unknown motor
Mass
575 kg wet, ~530 kg dry
Launch date (UTC)
2025-04-07 (3 weeks ago)
Launch vehicle
FALCON 9
Launch site
Air Force Western Test Range (AFWTR)
Object type
Payload
Rocket body
Debris
Shape & HBR
Unknown
Radar Cross Section
Large (>1 m²)

Expand to show TLE details & history

TLE from 2 days ago
0 STARLINK-33785
1 63516U 25071Z   25118.51079768  .00064889  00000-0  44564-3 0  9997
2 63516  53.1569 169.6417 0002010 116.9697 243.1528 15.74099332  4415
Epoch: 2025-04-28T12:15Z
Definitive object data (Epoch: 2025-04-28T12:15:32.919Z)
Latitude
-0.00004°
Longitude
129.03073°
Altitude
348.722 km
Speed
7.701 km/s
True Right ascension
11h 18m 34s
True Declination
0° 00' 00"
Sunlit
Object was in full shadow at TLE epoch
Visualization TLE readout
Latitude
-51.0662°
Longitude
52.38308°
Altitude
365.4 km
Speed
7.689 km/s
Apparent Right ascension
05h 40m 14s
Apparent Declination
-45° 42' 02"
Sunlit
Object is in daylight
Visualization observer readout
Local Sidereal Time
17:12:44
Azimuth
218.782° SW
Elevation
-82.333°
Doppler factor
1
Orbital elements
Apogee altitude
348.809 km
Perigee altitude
346.105 km
Semi-major axis
6,725.594 km
Eccentricity
0.000201
Inclination
53.1569°
RAAN
169.6417°
Arg. of periapsis
116.9697°
True anomaly
243.13225°
Mean anomaly
243.1528°
Eccentric anomaly
243.14253°
Mean motion
3.93502 °/min
BSTAR
0.00044564
Orbital period
91.49 mins
Loading maneuver chart data...
Loading SW <> Apogee altitude chart data...
Loading historical data...
Loading historical data...
Loading historical data...
Loading historical data...
Loading historical data...
Loading historical data...
Loading historical data...

STARLINK-33785 Visibility forecast

Observer location: undefined°, undefined°

Span
Click to sort rows by Start time (UTC) header in descending order
Start Az.
Max El. time (UTC)
Max El. Az.
Max El.
End time (UTC)
End Az.
4 mins2025-04-30 11:58:52.141Z331.909° NNW2025-04-30 12:00:52.141Z52.119° ENE32.274°2025-04-30 12:02:52.141Z104.712° ESE
|